Back to catalog

COSMOS 2143 DEB

AlivePO
NORAD 57720·DEBRIS·🇷🇺 Russia

Launched May 16, 1991 from Plesetsk Cosmodrome

Loading…

Next Passes (next 24 hours)

TLE

FreshSource: Space-Track

Epoch: Sep 14, 2026, 12:34 UTC

1 57720U 91033H   26257.52367609  .00000353  00000-0  23697-2 0  9997
2 57720  82.7075 291.1079 0174001 352.9952   6.8698 12.42186707140469

Track COSMOS 2143 DEB in real time with AllMySat

Download on the App Store